[[{"header":{"parameterUnit":"m.s-1","parameterCategory":1,"la1":30.2991,"la2":30.254,"lo1":-89.0895,"lo2":-89.0444,"dy":0.0017,"dx":0.0017,"nx":28,"ny":28,"refTime":"2025-07-30T21:00:00:Z","depth":0,"parameterNumber":2,"parameterNumberName":"U-component_of_WINDS"},"data":[0,0,0,0,0,0,0,0,0,0,0,0,0,0,0,0,0,0,0,0,0,0,0,0,0,0,0,0,0,0,0,0,0,0,0,0,0,0,0,0,0,0,0,0,0,0,0,0,0,0,0,0,0,0,0,0,0,0,1.3754,1.3755,0,1.3859,1.386,1.3862,1.3866,1.3865,1.3864,1.3863,1.3971,1.3975,1.3979,0,0,0,0,0,0,0,0,0,0,0,0,0,1.3557,1.3561,1.3754,1.3755,1.3757,1.3859,1.3861,1.3862,1.3867,1.3865,1.3864,1.3862,1.397,1.3974,1.3979,0,0,0,0,0,0,0,0,0,0,0,0,0,1.3651,1.3562,1.3754,1.3771,1.3774,1.3859,1.3861,1.3862,1.3867,1.3865,1.3863,1.3861,1.3968,1.3974,1.398,1.4054,0,0,1.3998,1.4001,0,0,0,0,0,0,0,0,1.3645,1.3658,1.3767,1.377,1.3773,1.3848,1.3831,1.3927,1.3867,1.3832,1.3863,1.3861,1.3931,1.394,1.3964,1.4059,1.4064,1.3999,1.4003,1.4005,1.4007,0,0,0,0,0,0,0,1.3639,1.3653,1.3796,1.3769,1.3773,1.3774,1.3785,1.3849,1.3891,1.3835,1.3835,1.3848,1.3933,1.3958,1.3967,1.4066,1.3999,1.4004,1.4008,1.401,1.4227,1.4229,0,0,0,0,0,0,1.3629,1.3648,1.3792,1.3799,1.3703,1.3779,1.3792,1.3826,1.389,1.3898,1.3849,1.3847,1.3949,1.396,1.3971,1.4062,1.4005,1.4011,1.4014,1.4225,1.4227,1.423,0,0,0,0,0,0,1.3625,1.3642,1.3788,1.3724,1.3742,1.3784,1.3823,1.3829,1.3854,1.3901,1.3908,1.3868,1.3948,1.3962,1.4033,1.4066,1.4013,1.4019,1.4222,1.4226,1.4229,1.4245,0,0,0,0,0,0,1.3619,1.364,1.3669,1.3724,1.3746,1.3849,1.3825,1.3832,1.3865,1.3864,1.392,1.3928,1.3948,1.4024,1.4039,1.4073,1.4024,1.422,1.4224,1.4228,1.4241,1.4248,1.4254,0,0,0,0,0,1.3612,1.3669,1.367,1.3688,1.3783,1.3851,1.3863,1.3885,1.3867,1.3897,1.3926,1.3926,1.406,1.4032,1.4049,1.4084,1.4218,1.4223,1.4227,1.4239,1.4247,1.4253,0,0,0,0,0,0,1.3617,1.3677,1.3679,1.3756,1.3798,1.3852,1.3889,1.3892,1.3941,1.3938,1.3962,1.3975,1.4045,1.4072,1.404,1.416,1.4137,1.4145,1.414,1.4148,1.4154,1.4145,1.4029,0,0,0,0,0,1.3627,1.3678,1.3727,1.3791,1.3812,1.3847,1.3877,1.389,1.3935,1.3953,1.3988,1.4032,1.4084,1.4117,1.4167,1.4246,1.4258,1.4279,1.4285,1.4289,1.4296,1.4339,1.4349,1.4245,1.4245,1.4245,0,0,1.3648,1.3687,1.3718,1.3793,1.3827,1.3878,1.3862,1.3917,1.3956,1.3962,1.4031,1.4058,1.4108,1.4183,1.4218,1.4208,1.4327,1.4295,1.4299,1.4303,1.4345,1.4355,1.4363,1.4249,1.4248,1.4248,0,0,1.3713,1.3748,1.3804,1.3839,1.3891,1.3914,1.3928,1.3981,1.3999,1.4069,1.4074,1.412,1.4209,1.4245,1.4275,1.4353,1.4354,1.4369,1.44,1.4442,1.445,1.4457,1.4485,1.4494,1.4376,1.4376,1.4376,0,1.3733,1.3811,1.3833,1.3888,1.3921,1.3928,1.3985,1.4018,1.4084,1.4106,1.4094,1.4205,1.424,1.4323,1.4342,1.4366,1.4382,1.4362,1.4447,1.4455,1.4462,1.4488,1.4498,1.4377,1.4377,1.4377,1.4377,0,1.3833,1.3887,1.3926,1.3989,1.4026,1.4082,1.4112,1.4147,1.4157,1.4181,1.4252,1.4294,1.4352,1.4373,1.4383,1.4457,1.4449,1.4442,1.4419,1.4472,1.4498,1.4508,1.4379,1.4378,1.4378,1.4378,0,0,1.3904,1.3978,1.3992,1.4021,1.4079,1.4121,1.4177,1.4234,1.4264,1.4309,1.4356,1.4431,1.4425,1.4458,1.4472,1.4509,1.4568,1.4497,1.4498,1.4508,1.4652,1.4657,1.4668,1.4569,1.4571,1.4573,1.4647,0,1.3975,1.4075,1.4096,1.4182,1.4232,1.424,1.4289,1.433,1.4354,1.44,1.4426,1.4479,1.4466,1.4487,1.4523,1.4553,1.4597,1.4548,1.4613,1.4615,1.46,1.4681,1.4687,1.4755,1.4657,1.4659,1.466,0,1.4071,1.4118,1.4209,1.426,1.4282,1.4326,1.4379,1.4423,1.447,1.4485,1.4522,1.4533,1.4591,1.4566,1.4647,1.4613,1.4641,1.466,1.4663,1.467,1.4641,1.4689,1.4777,1.4787,1.4676,1.4675,1.4674,0,1.4112,1.4199,1.4265,1.4289,1.4351,1.4381,1.4408,1.4453,1.4485,1.4533,1.4554,1.4608,1.4637,1.4678,1.4702,1.4682,1.4782,1.4758,1.4795,1.4795,1.4816,1.4814,1.4909,1.4835,1.4835,1.4834,1.4834,0,1.4189,1.4244,1.4284,1.4324,1.4387,1.441,1.4471,1.4498,1.4538,1.4584,1.4594,1.4636,1.4666,1.4713,1.4733,1.4796,1.481,1.4823,1.4828,1.4822,1.482,1.4841,1.4836,1.4837,1.4836,1.4836,1.4835,0,1.4246,1.4275,1.4347,1.4399,1.4414,1.4457,1.4502,1.4541,1.4565,1.4623,1.4638,1.4676,1.4732,1.476,1.483,1.4843,1.4914,1.4916,1.4899,1.49,1.4935,1.4932,1.5046,1.5062,1.4978,1.4979,1.4979,0,1.4293,1.4336,1.4392,1.4424,1.4451,1.4501,1.4535,1.456,1.4595,1.4651,1.4683,1.4739,1.4785,1.4874,1.4908,1.4961,1.4964,1.5,1.4972,1.4965,1.4964,1.4961,1.4965,1.5005,1.5006,1.5007,1.5007,0,1.4373,1.4385,1.4433,1.4486,1.4525,1.4568,1.4611,1.4636,1.4668,1.4706,1.4763,1.4798,1.4869,1.4925,1.498,1.5008,1.5013,1.5016,1.5027,1.5022,1.5009,1.5016,1.4912,1.5013,1.5013,1.5012,1.5012,1.5012,1.4426,1.4464,1.451,1.4563,1.4597,1.4636,1.4676,1.4705,1.4753,1.4812,1.4824,1.4884,1.4929,1.5004,1.5034,1.5081,1.5074,1.509,1.5094,1.5098,1.5099,1.5002,1.5092,1.5092,1.5092,1.5091,1.5091,0,1.4505,1.4535,1.4584,1.4643,1.4684,1.4685,1.4732,1.4767,1.4819,1.4861,1.4906,1.4971,1.5025,1.5063,1.5118,1.5149,1.5152,1.5162,1.516,1.5166,1.5103,1.5088,1.5158,1.5158,1.5158,1.5158,1.5158,1.5158,1.4552,1.4616,1.4634,1.4715,1.4745,1.4804,1.483,1.4866,1.49,1.4972,1.5017,1.5041,1.5082,1.5139,1.5189,1.5198,1.5218,1.5228,1.5237,1.5178,1.5171,1.5164,1.5149,1.5232,1.5232,1.5297,1.5297,1.5298]},{"header":{"parameterUnit":"m.s-1","parameterCategory":1,"la1":30.2991,"la2":30.254,"lo1":-89.0895,"lo2":-89.0444,"dy":0.0017,"dx":0.0017,"nx":28,"ny":28,"refTime":"2025-07-30T21:00:00:Z","depth":0,"parameterNumber":3,"parameterNumberName":"V-component_of_WINDS"},"data":[0,0,0,0,0,0,0,0,0,0,0,0,0,0,0,0,0,0,0,0,0,0,0,0,0,0,0,0,0,0,0,0,0,0,0,0,0,0,0,0,0,0,0,0,0,0,0,0,0,0,0,0,0,0,0,0,0,0,3.5557,3.5557,0,3.5602,3.5603,3.5603,3.5555,3.5553,3.5551,3.5549,3.5591,3.5593,3.5596,0,0,0,0,0,0,0,0,0,0,0,0,0,3.5423,3.5426,3.5557,3.5558,3.5558,3.5602,3.5603,3.5603,3.5555,3.5553,3.555,3.5548,3.559,3.5593,3.5596,0,0,0,0,0,0,0,0,0,0,0,0,0,3.5476,3.5427,3.5557,3.5539,3.5538,3.5602,3.5603,3.5603,3.5555,3.5553,3.555,3.5547,3.5589,3.5593,3.5597,3.5678,0,0,3.561,3.5612,0,0,0,0,0,0,0,0,3.5473,3.5481,3.5541,3.5541,3.554,3.557,3.5571,3.5628,3.5556,3.5549,3.5549,3.5546,3.5586,3.559,3.5604,3.568,3.5682,3.561,3.5613,3.5615,3.5616,0,0,0,0,0,0,0,3.547,3.5479,3.5575,3.5542,3.5541,3.5527,3.5532,3.5581,3.5582,3.5549,3.5546,3.5552,3.5585,3.56,3.5605,3.5683,3.561,3.5614,3.5616,3.5618,3.5827,3.5829,0,0,0,0,0,0,3.5469,3.5476,3.5573,3.5576,3.5499,3.5532,3.5537,3.5563,3.5581,3.5582,3.5554,3.555,3.5595,3.56,3.5606,3.5702,3.5615,3.5618,3.5621,3.5824,3.5827,3.5831,0,0,0,0,0,0,3.5466,3.5478,3.5571,3.5525,3.5536,3.5537,3.5567,3.5565,3.5581,3.5585,3.5585,3.5571,3.5593,3.56,3.5661,3.5703,3.562,3.5624,3.582,3.5825,3.5829,3.5896,0,0,0,0,0,0,3.5462,3.5477,3.5509,3.5526,3.5539,3.5627,3.5569,3.5568,3.5589,3.5583,3.5601,3.5601,3.5591,3.5655,3.5665,3.5707,3.5628,3.5816,3.5822,3.5828,3.589,3.5902,3.5912,0,0,0,0,0,3.5458,3.5525,3.5511,3.5523,3.558,3.563,3.5637,3.5625,3.5593,3.5624,3.5627,3.56,3.5697,3.5662,3.5673,3.5717,3.5814,3.5821,3.5827,3.5885,3.5899,3.5912,0,0,0,0,0,0,3.5512,3.5527,3.5512,3.5588,3.5608,3.5621,3.5661,3.5642,3.567,3.5664,3.5647,3.5651,3.5715,3.5722,3.5682,3.5796,3.575,3.5759,3.579,3.5804,3.5815,3.5812,3.5631,0,0,0,0,0,3.5533,3.5574,3.5585,3.565,3.5661,3.566,3.5681,3.5671,3.569,3.5698,3.5705,3.5724,3.5758,3.5781,3.5813,3.589,3.5893,3.5926,3.5938,3.5947,3.5955,3.5995,3.601,3.5853,3.5853,3.5853,0,0,3.5576,3.559,3.5616,3.5662,3.5676,3.5717,3.5667,3.5713,3.5743,3.5705,3.5763,3.5769,3.5788,3.5857,3.5888,3.5865,3.5999,3.5955,3.5963,3.5966,3.6003,3.6018,3.6032,3.5857,3.5856,3.5856,0,0,3.5676,3.5691,3.5747,3.5763,3.5786,3.5785,3.5798,3.5815,3.5818,3.5876,3.5848,3.5882,3.5943,3.5958,3.5973,3.6078,3.6054,3.6089,3.6148,3.6188,3.62,3.6211,3.6247,3.6261,3.6097,3.6097,3.6098,0,3.5726,3.5789,3.5778,3.5826,3.5846,3.5815,3.5871,3.5886,3.5918,3.5932,3.5905,3.598,3.5991,3.6063,3.6089,3.6103,3.6116,3.6087,3.6199,3.621,3.622,3.6255,3.6269,3.6101,3.6101,3.6101,3.61,0,3.5849,3.5893,3.5935,3.5969,3.5994,3.6045,3.604,3.6066,3.6054,3.6054,3.6113,3.6126,3.6159,3.6175,3.6163,3.6245,3.623,3.6202,3.6155,3.6239,3.6272,3.6285,3.6107,3.6106,3.6105,3.6104,0,0,3.5984,3.6011,3.6027,3.6041,3.6065,3.6097,3.6147,3.6181,3.6204,3.6226,3.6267,3.6318,3.6292,3.631,3.6299,3.6334,3.6415,3.6301,3.6301,3.6321,3.6506,3.6526,3.6542,3.64,3.6402,3.6404,3.6504,0,3.6084,3.6172,3.6163,3.6246,3.6286,3.6257,3.63,3.6318,3.6319,3.6352,3.6353,3.639,3.6353,3.6363,3.6397,3.6399,3.6452,3.6391,3.6435,3.6437,3.6431,3.6559,3.6581,3.6674,3.6516,3.6519,3.652,0,3.6212,3.6242,3.6329,3.6346,3.6362,3.6402,3.6432,3.6464,3.6483,3.6482,3.6502,3.6485,3.6533,3.6485,3.655,3.6509,3.6526,3.653,3.6533,3.6536,3.6483,3.6565,3.6704,3.6718,3.654,3.6538,3.6537,0,3.6301,3.6362,3.6422,3.6436,3.6457,3.6485,3.6495,3.6512,3.6533,3.6559,3.6572,3.6603,3.662,3.6643,3.6634,3.6601,3.6701,3.6653,3.67,3.67,3.6721,3.672,3.6864,3.6734,3.6734,3.6734,3.6733,0,3.6413,3.6468,3.6463,3.6499,3.6559,3.6547,3.6606,3.6612,3.6627,3.6663,3.6639,3.6673,3.666,3.6692,3.6685,3.674,3.6747,3.6747,3.6744,3.6749,3.6749,3.6759,3.6752,3.6737,3.6736,3.6736,3.6735,0,3.6522,3.6521,3.6585,3.66,3.6605,3.6649,3.6661,3.6695,3.6695,3.6741,3.6751,3.675,3.6787,3.6781,3.6822,3.6817,3.6885,3.6874,3.6879,3.6876,3.6923,3.6919,3.7079,3.7099,3.6956,3.6958,3.6959,0,3.6594,3.6635,3.6656,3.6679,3.6692,3.673,3.6751,3.6741,3.6764,3.6789,3.682,3.6855,3.6883,3.6944,3.6946,3.6977,3.6966,3.702,3.6971,3.6974,3.6966,3.6964,3.6967,3.703,3.7032,3.7033,3.7034,0,3.6721,3.6718,3.6752,3.6785,3.6812,3.6838,3.686,3.688,3.6872,3.6899,3.6938,3.6959,3.7002,3.7036,3.7065,3.7073,3.7052,3.705,3.7062,3.7067,3.7068,3.7067,3.6905,3.7046,3.7045,3.7044,3.7043,3.7043,3.6812,3.6848,3.6868,3.6906,3.6922,3.6944,3.6976,3.6981,3.7014,3.7048,3.704,3.7083,3.71,3.7137,3.7148,3.7181,3.7161,3.7179,3.7183,3.7188,3.7193,3.7063,3.7186,3.7186,3.7185,3.7185,3.7185,0,3.6937,3.6949,3.6984,3.7017,3.7047,3.7026,3.705,3.7075,3.7114,3.7133,3.7161,3.7205,3.7239,3.7244,3.7276,3.7301,3.7292,3.7309,3.7307,3.7309,3.721,3.7196,3.7316,3.7316,3.7316,3.7316,3.7316,3.7316,3.7006,3.7064,3.7064,3.713,3.714,3.7184,3.7199,3.7219,3.7233,3.7284,3.7313,3.7317,3.7329,3.7362,3.7391,3.7392,3.7404,3.7425,3.7422,3.7329,3.7316,3.7303,3.729,3.7428,3.7428,3.7518,3.7519,3.752]}]]